Location: Sternwarte ZA, Rosenfeld-Brittheim
(48.2889°N, 8.6789°E)
Time: 05:23:04
(UTC+02:00)

ISS - Pass Details

Date: 21 September 2020
Orbit: 419 x 420 km, 51.6° (Epoch: 21 September)

Event Time Altitude Azimuth Distance (km) Brightness Sun altitude
Rises 20:51:32 0° 249° (WSW) 2,361 0.9 -15.1°
Reaches altitude 10° 20:53:38 10° 250° (WSW) 1,499 -0.2 -15.4°
Maximum altitude 20:57:00 84° 339° (NNW) 427 -3.8 -15.9°
Enters shadow 20:58:28 31° 65° (ENE) 757 -2.9 -16.2°
